Theta_e
314 313 316 319 321 327 336 347 356 348 353 359 358 356 353 345 346 347 346 347 344 344 342 345 345 345 344 343 343 345 341 340 340 343 343 345 347 346 344 343 345 346 347 345
313 313 314 318 321 324 327 354 357 352 354 357 358 359 354 347 345 344 347 348 344 345 344 344 344 345 344 345 345 345 343 342 344 345 345 346 345 346 343 345 347 347 347 345
313 315 317 318 319 321 329 353 355 350 344 355 356 358 357 349 346 343 345 345 345 345 345 344 344 345 347 345 346 345 344 343 347 344 344 344 343 347 348 348 347 344 347 349
315 316 317 318 318 323 339 347 344 347 346 348 351 353 359 354 349 346 344 346 346 347 346 345 344 345 346 345 345 345 344 344 345 343 343 345 343 347 348 348 346 344 347 349
319 320 319 319 320 328 333 340 340 347 346 337 337 348 345 355 356 351 345 345 346 346 347 345 344 346 345 345 346 345 345 347 345 343 343 346 346 346 346 347 347 345 346 350
319 321 323 324 325 326 327 334 333 333 333 339 340 346 351 357 355 354 347 343 344 344 347 345 344 345 347 346 347 345 345 345 345 343 345 345 345 348 346 346 348 346 347 349
320 321 322 324 324 321 322 322 326 340 341 341 338 344 350 349 346 347 350 345 342 341 346 345 341 343 349 350 350 348 346 345 345 344 346 344 345 347 345 345 345 348 347 348
320 321 321 323 322 323 325 321 323 333 337 336 337 346 351 345 340 343 343 347 342 341 345 343 341 343 348 351 351 350 349 348 346 345 347 349 349 349 348 347 345 348 348 347
322 322 321 322 322 321 322 320 321 323 326 336 343 345 345 339 340 343 346 346 344 343 344 344 344 344 345 350 350 350 349 345 344 345 347 347 348 348 347 348 348 347 348 347
324 325 323 323 322 327 321 320 324 331 342 344 348 351 344 341 343 343 343 343 344 343 343 341 343 343 343 349 350 351 349 345 344 348 346 344 348 347 347 347 349 350 349 350
322 324 327 331 332 332 329 331 333 335 337 342 345 344 342 343 342 341 341 338 340 343 345 340 343 344 342 344 350 352 351 347 346 347 347 344 346 349 347 347 346 350 349 350
326 321 332 335 331 330 331 334 329 332 340 338 340 338 342 342 342 338 339 335 339 340 346 343 343 343 345 346 350 352 351 349 348 347 348 348 347 349 348 345 350 348 349 350
325 323 332 329 326 328 332 332 330 329 332 338 340 338 338 342 339 336 337 338 342 344 345 346 343 341 345 348 351 351 351 351 350 349 348 351 351 350 348 346 347 349 346 349
326 319 323 325 326 329 334 333 332 328 331 337 336 340 338 338 344 337 336 338 347 346 346 346 345 342 343 345 343 345 346 347 348 348 349 349 350 348 346 347 348 347 347 349
319 320 322 321 330 332 330 332 332 334 331 335 338 341 334 336 338 335 338 342 349 349 348 345 343 341 342 343 344 343 343 340 340 341 343 349 349 349 348 349 349 348 346 348
320 322 327 328 332 332 334 335 333 334 337 338 341 339 332 331 333 345 346 346 347 350 347 345 342 342 342 343 344 342 343 342 339 341 341 342 342 347 350 349 349 350 351 350
325 324 323 327 326 331 333 334 333 333 333 331 339 340 338 341 347 345 344 345 344 342 343 343 345 342 342 342 340 339 339 342 342 339 339 340 336 341 347 349 349 350 349 350
321 322 321 324 324 329 323 330 332 336 341 342 343 339 338 343 343 340 342 343 343 341 338 339 340 341 342 343 343 343 342 341 340 340 339 338 338 340 343 349 350 349 348 350
315 320 322 322 324 326 334 332 331 336 338 338 337 343 339 339 341 339 339 339 339 338 336 337 338 339 340 340 340 341 342 343 343 343 341 339 337 336 336 342 348 348 349 349
320 316 320 319 323 327 330 333 335 334 342 339 338 339 341 344 344 340 337 337 336 336 338 337 336 335 335 334 336 338 340 341 342 341 341 344 343 342 338 336 346 347 348 349
324 322 321 323 324 331 332 331 329 330 331 338 336 336 338 341 336 335 335 335 335 335 335 334 333 331 331 332 334 337 340 341 343 346 344 343 342 344 344 345 346 345 345 345
322 325 323 320 327 338 331 331 334 332 335 336 335 332 332 336 336 335 334 333 332 332 334 333 331 329 330 331 335 337 338 340 344 343 342 342 342 341 339 337 337 336 338 339
327 324 326 324 327 324 329 328 330 335 335 336 333 328 329 337 336 335 334 331 331 331 331 332 330 328 328 329 331 334 336 338 341 340 341 340 338 337 336 335 335 335 332 331
326 326 327 328 331 331 331 325 328 334 335 336 332 328 332 336 333 334 332 330 330 330 330 330 330 328 327 328 329 331 335 336 339 337 336 335 334 333 331 332 331 331 330 328
326 327 327 326 326 326 329 327 329 332 329 325 324 325 332 330 329 332 330 328 330 330 330 329 329 329 328 327 328 331 333 335 335 333 332 330 329 328 327 326 324 326 327 327
327 328 325 324 323 323 324 326 326 325 324 322 323 325 325 329 331 330 328 329 329 330 330 329 330 329 328 328 328 330 332 333 333 330 328 327 327 326 324 321 318 319 323 323
Wind_Speed
3 4 5 9 7 4 6 3 8 2 5 5 10 7 9 7 6 7 7 7 7 13 11 24 25 30 34 27 30 28 27 21 20 20 18 13 13 24 23 17 14 12 11 8
5 6 12 8 7 6 9 11 1 3 7 7 4 13 5 11 9 9 9 8 9 5 6 15 22 31 30 29 30 27 28 28 23 19 15 12 20 19 18 20 17 12 11 9
6 9 6 7 10 6 6 9 6 5 3 3 4 4 5 5 5 7 5 9 6 11 8 9 19 26 27 33 34 32 31 32 27 22 17 11 12 16 20 23 18 14 14 9
7 11 7 8 8 5 3 19 14 14 6 4 9 4 4 5 9 11 13 9 8 10 7 7 20 22 28 32 36 36 32 33 28 23 21 14 13 18 18 20 16 14 15 11
9 2 7 6 11 3 5 14 15 12 6 3 3 2 5 7 7 13 14 12 11 11 11 10 20 26 30 30 35 37 35 33 28 25 23 17 14 18 22 21 19 13 14 12
8 2 2 3 1 3 4 2 7 6 3 3 3 4 4 2 6 6 8 12 14 11 11 13 21 25 25 26 28 34 36 34 31 28 24 22 18 20 22 22 18 17 16 14
5 7 4 2 1 7 8 6 3 3 3 5 6 3 5 4 10 9 10 13 16 14 13 11 10 17 24 27 27 31 35 34 33 30 26 25 21 20 20 20 18 20 20 16
4 9 7 3 6 5 3 8 5 4 4 6 2 3 1 5 10 13 14 5 12 13 14 13 14 21 24 28 31 31 34 34 35 32 26 21 20 19 15 14 20 19 25 20
3 6 2 5 5 8 4 2 5 5 3 4 4 5 5 8 14 13 15 15 13 8 10 12 13 21 25 31 33 33 34 34 36 35 30 26 20 18 16 18 19 17 22 22
4 3 3 2 7 5 3 1 3 4 2 1 4 3 4 5 7 9 12 11 12 10 4 10 16 20 26 30 32 31 35 36 39 35 36 33 25 23 19 20 17 15 15 16
3 3 5 5 3 3 5 3 7 6 3 4 1 5 2 3 2 3 6 8 11 13 8 8 11 20 21 23 29 32 34 33 34 36 35 35 31 25 25 20 20 16 15 14
3 5 3 3 5 5 4 4 5 5 3 1 3 5 7 7 4 3 6 11 8 7 15 7 14 8 11 16 30 35 33 33 34 38 35 35 34 30 26 26 22 19 16 16
1 3 2 6 6 3 5 1 4 6 4 4 5 5 7 8 6 5 7 6 9 10 13 5 11 10 13 10 21 23 23 22 24 25 32 33 34 33 31 30 27 24 22 20
8 3 6 6 7 3 3 3 3 6 4 5 4 5 5 3 8 3 4 6 8 10 11 2 7 9 12 14 15 21 17 15 9 7 21 27 32 34 33 30 32 29 26 20
6 4 5 7 6 4 5 3 5 4 5 5 4 4 3 3 6 7 8 8 6 1 5 6 9 11 11 16 14 9 8 11 6 3 1 12 17 25 31 30 28 27 26 25
1 2 2 4 3 5 2 2 2 6 6 5 9 4 3 6 4 4 6 4 6 8 4 1 3 8 7 11 13 13 11 9 4 4 7 1 3 14 25 31 31 30 29 28
4 4 3 3 4 0 2 7 6 3 5 6 5 6 4 4 3 2 5 6 6 4 6 8 7 6 10 11 6 3 10 9 14 8 5 10 6 11 16 26 31 29 25 26
5 4 3 3 4 1 7 2 3 7 3 2 5 6 5 7 4 5 5 4 5 6 7 5 7 11 14 14 10 7 5 12 18 16 11 17 20 10 8 14 31 26 24 25
5 5 3 4 3 4 4 4 7 6 3 3 3 4 4 6 4 5 6 6 7 6 8 9 6 5 9 11 7 7 8 6 15 20 18 15 14 9 9 16 22 25 26 24
6 5 5 2 4 4 7 2 8 7 1 6 1 3 4 5 2 3 5 6 7 14 15 13 11 9 8 6 4 4 3 3 5 7 12 15 15 10 4 13 25 23 23 22
3 3 5 2 2 5 4 3 7 5 7 5 4 3 5 5 5 4 9 7 13 14 13 13 11 11 10 8 4 2 3 3 7 7 11 9 10 9 7 15 9 9 12 13
4 5 3 3 4 3 3 3 6 6 3 8 7 6 5 3 6 8 10 10 11 10 10 10 11 11 8 7 6 6 3 5 1 6 7 8 10 12 11 9 8 7 8 9
4 3 4 6 6 4 2 6 3 8 10 7 7 5 5 6 6 8 8 9 11 11 9 10 9 8 6 6 4 4 3 3 8 12 11 14 12 10 10 6 5 11 7 2
4 3 3 3 4 4 4 5 7 10 9 7 5 5 6 5 5 7 7 6 8 11 10 8 9 6 5 6 3 3 4 3 10 15 16 12 12 10 8 10 7 12 9 8
4 3 2 2 1 6 1 3 10 12 9 9 7 9 9 6 6 7 7 7 11 9 7 6 7 5 5 4 3 4 6 10 12 13 12 11 11 9 9 9 8 11 9 7
4 6 4 5 6 5 5 4 6 16 14 14 13 8 7 9 8 8 6 13 13 12 9 5 4 3 3 5 4 4 6 10 14 13 10 8 8 10 10 12 11 11 11 8
Wind_Direction
308 73 229 239 202 223 223 185 116 202 162 184 219 220 205 153 174 172 177 173 184 158 173 167 169 169 180 180 176 171 179 179 180 190 184 207 198 179 183 176 182 182 174 184
3 232 233 238 255 247 268 137 74 326 187 177 187 235 178 177 194 190 180 192 162 162 155 165 171 175 178 181 178 181 184 181 186 192 197 204 164 173 184 190 191 184 189 173
175 238 212 221 269 258 252 145 151 246 151 281 20 250 175 190 176 178 212 186 190 168 178 165 165 176 172 178 186 188 187 184 184 192 199 196 166 159 174 184 192 202 191 170
216 253 235 252 241 160 177 144 134 246 139 208 153 270 240 195 192 183 196 190 180 162 167 159 166 171 176 178 183 184 187 185 184 192 197 201 184 173 182 190 202 195 193 177
252 218 235 245 239 141 188 159 183 193 177 76 1 91 260 170 207 211 194 196 191 181 172 167 165 180 183 178 180 189 191 189 189 193 200 206 209 201 198 199 204 202 197 197
236 251 237 201 54 137 129 126 34 50 94 30 252 165 283 66 307 268 200 186 201 193 183 185 178 178 187 183 182 188 190 191 191 196 203 211 217 200 194 204 206 203 211 206
333 276 268 193 22 349 69 67 358 20 28 218 210 97 234 336 33 359 203 198 194 192 195 187 162 172 180 182 182 186 195 198 197 198 203 208 221 201 201 209 212 213 214 219
229 304 162 217 172 163 172 151 155 192 191 238 274 189 193 81 27 32 31 289 192 185 194 205 175 184 180 187 187 187 198 203 204 196 201 202 198 197 202 221 220 229 213 215
60 312 257 153 190 123 291 29 183 131 36 83 302 304 113 32 26 29 28 19 1 341 219 204 176 184 190 189 192 188 197 202 200 198 200 206 204 202 203 208 207 217 217 221
194 38 279 293 40 12 145 187 30 18 110 127 309 294 240 350 8 23 31 10 334 290 287 230 211 187 199 199 190 188 198 202 202 205 203 206 209 207 205 207 208 206 214 214
94 91 302 50 28 226 1 41 62 107 104 153 181 261 166 164 249 80 64 45 6 327 273 205 226 216 184 197 182 189 197 203 206 210 211 208 208 209 209 214 214 212 216 216
338 119 78 199 244 211 160 146 116 121 205 136 145 271 163 139 152 313 36 16 21 341 320 227 198 216 178 192 184 190 197 198 207 210 215 215 208 207 211 214 210 216 210 203
312 42 53 348 352 322 88 354 120 101 86 183 139 260 194 148 104 360 35 21 4 348 339 63 74 67 110 129 172 172 182 202 210 212 210 215 217 211 216 218 221 224 226 220
83 120 153 180 214 182 148 207 153 117 117 170 222 292 247 161 145 150 77 346 44 323 277 146 95 101 94 119 106 135 133 152 135 215 217 219 224 221 216 216 222 228 230 228
118 185 178 226 236 184 200 151 186 169 154 130 241 235 298 114 148 180 182 243 162 292 248 192 160 151 131 128 164 141 146 121 107 37 77 207 237 233 223 218 220 224 225 226
48 216 136 340 7 162 93 101 229 153 151 139 158 234 169 154 155 215 218 94 124 146 180 209 111 98 135 149 156 169 214 203 221 270 219 156 255 253 243 230 225 229 231 230
116 120 87 274 356 283 11 228 187 172 77 140 171 212 196 111 177 244 136 128 123 89 88 88 92 121 130 106 112 214 204 196 215 218 231 252 301 272 254 249 229 225 230 231
134 110 117 200 36 355 246 298 68 104 79 127 116 131 158 137 143 55 59 109 108 117 100 64 60 87 93 109 111 120 134 186 210 212 236 244 248 261 260 270 239 217 221 221
138 115 87 128 159 282 317 276 144 154 236 242 218 128 151 125 93 43 112 110 113 114 122 129 112 70 70 69 75 100 105 134 185 206 219 232 239 252 324 307 270 223 223 219
81 89 121 134 142 198 236 335 116 114 319 249 83 149 122 99 109 239 148 118 105 100 114 115 102 92 75 49 12 3 78 120 267 238 248 259 259 253 281 306 250 233 222 218
43 26 137 138 160 279 254 255 149 120 232 157 139 156 139 173 195 165 134 117 112 108 107 99 76 52 30 26 46 89 56 17 314 289 248 238 243 244 224 201 183 159 146 153
144 147 190 94 91 240 222 340 136 201 53 143 192 191 189 215 128 136 133 122 111 96 86 81 69 40 11 19 63 87 51 1 220 174 167 156 154 150 136 129 101 70 111 136
58 182 183 159 206 235 268 115 160 136 155 184 179 174 178 188 164 145 125 123 127 125 97 89 81 40 359 3 47 95 17 22 167 149 139 132 124 123 128 123 91 76 55 106
26 24 87 79 321 118 97 69 128 157 154 171 180 177 184 190 153 123 121 133 131 121 110 95 75 51 27 354 356 43 70 94 149 138 134 128 124 118 102 110 128 120 116 123
180 78 80 355 341 77 90 96 140 142 126 116 154 183 180 135 98 131 124 118 127 123 113 95 81 57 35 14 35 59 94 130 134 136 129 124 122 119 110 110 108 103 118 124
175 154 144 212 221 158 206 107 153 138 145 148 125 113 127 130 135 129 129 145 147 148 139 115 120 102 49 51 67 107 110 130 136 125 120 120 121 114 116 118 110 105 110 111